Provincetown, Massachusetts, United States (02657)
Lat: 42.06N, Lon: 70.18W
Wx Zone: MAZ022
Local Info
Past Weather Observations for Today

NOTE: This archive is for the closest National Weather Service station to Provincetown. Information may differ from the station used for current weather conditions.

Click here for Long-term Archive

Time Weather Temperature Dewpoint Humidity Pressure Winds Precip Visibility
20:55
Clear
73°F / 23°C 70°F / 21°C 89% 29.8 in
(1009 mb)
S 11.5 mph
(S 19 kph)
0.03 in
(0.76 mm)
10SM
20:35
Clear
73°F / 23°C 70°F / 21°C 89% 29.8 in
(1009 mb)
SSE 10.4 mph
(SSE 17 kph)
0.03 in
(0.76 mm)
10SM
20:15
Clear
73°F / 23°C 70°F / 21°C 89% 29.8 in
(1009 mb)
SW 12.7 mph
(SW 20 kph)
- 10SM
19:55
Clear
73°F / 23°C 70°F / 21°C 89% 29.8 in
(1009 mb)
SSE 10.4 mph
(SSE 17 kph)
- 10SM
19:35
Clear
73°F / 23°C 70°F / 21°C 89% 29.8 in
(1009 mb)
SSE 11.5 mph
(SSE 19 kph)
- 10SM
19:15
Clear
75°F / 24°C 70°F / 21°C 83% 29.8 in
(1009 mb)
SSE 10.4 mph
(SSE 17 kph)
- 10SM
18:55
Clear
75°F / 24°C 70°F / 21°C 83% 29.8 in
(1009 mb)
SSE 11.5 mph
(SSE 19 kph)
- 10SM
18:35
Clear
75°F / 24°C 70°F / 21°C 83% 29.8 in
(1009 mb)
SW 12.7 mph
(SW 20 kph)
- 10SM
18:15
Clear
75°F / 24°C 70°F / 21°C 83% 29.83 in
(1010 mb)
SW 12.7 mph
(SW 20 kph)
- 10SM
17:55
Clear
75°F / 24°C 70°F / 21°C 83% 29.83 in
(1010 mb)
SW 11.5 mph
(SW 19 kph)
- 10SM
17:35
Partly Cloudy
77°F / 25°C 72°F / 22°C 83% 29.83 in
(1010 mb)
SW 11.5 mph
(SW 19 kph)
- 10SM
17:15
Partly Cloudy
77°F / 25°C 72°F / 22°C 83% 29.83 in
(1010 mb)
SW 13.8 mph
(SW 22 kph)
- 10SM
16:55
Clear
79°F / 26°C 72°F / 22°C 79% 29.83 in
(1010 mb)
SW 13.8 mph
(SW 22 kph)
- 10SM
16:35
Clear
77°F / 25°C 72°F / 22°C 83% 29.83 in
(1010 mb)
SW 16.1 mph
(SW 26 kph)
- 10SM
16:15
Clear
77°F / 25°C 72°F / 22°C 83% 29.83 in
(1010 mb)
SW 16.1 mph
(SW 26 kph)
- 10SM
15:55
Clear
77°F / 25°C 72°F / 22°C 83% 29.83 in
(1010 mb)
SW 17.3 mph
(SW 28 kph)
- 10SM
15:35
Clear
79°F / 26°C 72°F / 22°C 79% 29.83 in
(1010 mb)
SW 15 mph
(SW 24 kph)
- 10SM
15:15
Clear
81°F / 27°C 72°F / 22°C 74% 29.83 in
(1010 mb)
SW 13.8 mph
(SW 22 kph)
- 10SM
14:55
Clear
81°F / 27°C 72°F / 22°C 74% 29.83 in
(1010 mb)
SW 13.8 mph
(SW 22 kph)
- 10SM
14:35
Clear
82°F / 28°C 73°F / 23°C 74% 29.83 in
(1010 mb)
SW 13.8 mph
(SW 22 kph)
- 10SM
14:15
Clear
81°F / 27°C 73°F / 23°C 79% 29.83 in
(1010 mb)
SSE 15 mph
(SSE 24 kph)
- 10SM
13:55
Clear
82°F / 28°C 73°F / 23°C 74% 29.83 in
(1010 mb)
S 11.5 mph
(S 19 kph)
- 10SM
13:35
Clear
84°F / 29°C 73°F / 23°C 70% 29.83 in
(1010 mb)
SSE 15 mph
(SSE 24 kph)
- 10SM
13:15
Clear
84°F / 29°C 73°F / 23°C 70% 29.86 in
(1011 mb)
SSE 12.7 mph
(SSE 20 kph)
- 10SM
12:55
Clear
84°F / 29°C 75°F / 24°C 74% 29.86 in
(1011 mb)
SSE 13.8 mph
(SSE 22 kph)
- 10SM
12:35
Clear
84°F / 29°C 73°F / 23°C 70% 29.86 in
(1011 mb)
SSE 12.7 mph
(SSE 20 kph)
- 10SM
12:15
Clear
82°F / 28°C 73°F / 23°C 74% 29.89 in
(1012 mb)
SSE 12.7 mph
(SSE 20 kph)
- 10SM
11:55
Clear
82°F / 28°C 73°F / 23°C 74% 29.89 in
(1012 mb)
SSE 12.7 mph
(SSE 20 kph)
- 10SM
11:35
Clear
82°F / 28°C 73°F / 23°C 74% 29.89 in
(1012 mb)
SSE 10.4 mph
(SSE 17 kph)
- 10SM
11:15
Clear
81°F / 27°C 73°F / 23°C 79% 29.89 in
(1012 mb)
S 11.5 mph
(S 19 kph)
- 10SM
10:55
Clear
81°F / 27°C 73°F / 23°C 79% 29.92 in
(1013 mb)
SSE 10.4 mph
(SSE 17 kph)
- 10SM
10:35
Clear
81°F / 27°C 73°F / 23°C 79% 29.92 in
(1013 mb)
SSE 12.7 mph
(SSE 20 kph)
- 10SM
10:15
Clear
79°F / 26°C 73°F / 23°C 84% 29.92 in
(1013 mb)
SSE 11.5 mph
(SSE 19 kph)
- 10SM
09:55
Clear
79°F / 26°C 73°F / 23°C 84% 29.95 in
(1014 mb)
SW 10.4 mph
(SW 17 kph)
- 10SM
09:35
Partly Cloudy
77°F / 25°C 73°F / 23°C 89% 29.95 in
(1014 mb)
SSE 11.5 mph
(SSE 19 kph)
- 10SM
09:15
Mostly Cloudy
77°F / 25°C 72°F / 22°C 83% 29.95 in
(1014 mb)
S 11.5 mph
(S 19 kph)
- 10SM
08:55
Overcast
73°F / 23°C 72°F / 22°C 94% 29.95 in
(1014 mb)
S 9.2 mph
(S 15 kph)
- 3SM
08:35
Overcast
73°F / 23°C 72°F / 22°C 94% 29.95 in
(1014 mb)
SSE 10.4 mph
(SSE 17 kph)
- 5SM
08:15
Overcast
72°F / 22°C 70°F / 21°C 94% 29.95 in
(1014 mb)
S 9.2 mph
(S 15 kph)
- 1 1/4SM
07:55
Overcast
72°F / 22°C 70°F / 21°C 94% 29.95 in
(1014 mb)
SSE 9.2 mph
(SSE 15 kph)
- 1/2SM
07:35
Overcast
72°F / 22°C 70°F / 21°C 94% 29.95 in
(1014 mb)
SSE 9.2 mph
(SSE 15 kph)
- 1/4SM
07:15
Overcast
72°F / 22°C 70°F / 21°C 94% 29.95 in
(1014 mb)
S 10.4 mph
(S 17 kph)
- 1/4SM
06:55
Overcast
72°F / 22°C 70°F / 21°C 94% 29.95 in
(1014 mb)
SSE 9.2 mph
(SSE 15 kph)
- 1 3/4SM
06:35
Overcast
72°F / 22°C 70°F / 21°C 94% 29.92 in
(1013 mb)
SSE 11.5 mph
(SSE 19 kph)
- 2 1/2SM
06:15
Overcast
70°F / 21°C 68°F / 20°C 94% 29.92 in
(1013 mb)
S 10.4 mph
(S 17 kph)
- 1SM
05:55
Overcast
70°F / 21°C 68°F / 20°C 94% 29.92 in
(1013 mb)
S 9.2 mph
(S 15 kph)
- 2 1/2SM
05:35
Overcast
70°F / 21°C 66°F / 19°C 88% 29.92 in
(1013 mb)
S 8.1 mph
(S 13 kph)
- 1/4SM
05:15
Mostly Cloudy
70°F / 21°C 68°F / 20°C 94% 29.92 in
(1013 mb)
S 5.8 mph
(S 9 kph)
- 2SM
04:55
Clear
70°F / 21°C 68°F / 20°C 94% 29.92 in
(1013 mb)
S 8.1 mph
(S 13 kph)
- 9SM
04:35
Clear
70°F / 21°C 68°F / 20°C 94% 29.92 in
(1013 mb)
S 9.2 mph
(S 15 kph)
- 10SM
04:15
Clear
70°F / 21°C 68°F / 20°C 94% 29.92 in
(1013 mb)
S 5.8 mph
(S 9 kph)
- 10SM
03:55
Clear
70°F / 21°C 68°F / 20°C 94% 29.92 in
(1013 mb)
S 8.1 mph
(S 13 kph)
- 9SM
03:35
Clear
70°F / 21°C 66°F / 19°C 88% 29.92 in
(1013 mb)
S 4.6 mph
(S 7 kph)
- 7SM
03:15
Clear
70°F / 21°C 68°F / 20°C 94% 29.92 in
(1013 mb)
S 4.6 mph
(S 7 kph)
- 8SM
02:55
Clear
70°F / 21°C 68°F / 20°C 94% 29.92 in
(1013 mb)
S 4.6 mph
(S 7 kph)
- 6SM
02:35
Clear
70°F / 21°C 68°F / 20°C 94% 29.92 in
(1013 mb)
S 6.9 mph
(S 11 kph)
- 8SM
02:15
Clear
70°F / 21°C 68°F / 20°C 94% 29.92 in
(1013 mb)
SW 6.9 mph
(SW 11 kph)
- 9SM
01:55
Clear
70°F / 21°C 66°F / 19°C 88% 29.92 in
(1013 mb)
SW 6.9 mph
(SW 11 kph)
- 7SM
01:35
Clear
70°F / 21°C 66°F / 19°C 88% 29.95 in
(1014 mb)
SSE 6.9 mph
(SSE 11 kph)
- 9SM
01:15
Clear
70°F / 21°C 68°F / 20°C 94% 29.95 in
(1014 mb)
SW 8.1 mph
(SW 13 kph)
- 10SM
00:55
Clear
70°F / 21°C 66°F / 19°C 88% 29.95 in
(1014 mb)
SW 8.1 mph
(SW 13 kph)
- 10SM
00:35
Clear
70°F / 21°C 68°F / 20°C 94% 29.95 in
(1014 mb)
SW 9.2 mph
(SW 15 kph)
- 10SM
00:15
Clear
70°F / 21°C 68°F / 20°C 94% 29.95 in
(1014 mb)
SW 8.1 mph
(SW 13 kph)
- 10SM
Time Weather Temperature Dewpoint Humidity Pressure Winds Precip Visibility


Weather for websites

WeatherForYou.com, LLC is not responsible for any damages or problems caused by this service. Current weather conditions are obtained from the closest station including government and personal stations which may have varying degrees of accuracy. Weather forecasts are derived from the NOAA NDFD. Like all things, this site belongs to Jesus Christ... He just trusts me to maintain it. If you have any questions or comments email webmaster@weatherforyou.com

Copyright © 2014, WeatherForYou.com LLC. All rights reserved.